| time (UTC) | temp C | wind direction | speed KPH | gust KPH | rain 1hr cm | rain 24hr cm | rain mn cm | humidity % | barometer mb |
| 20260504194440 | 17 | 202 | 16.1 | 37.0 | 0.00 | 0.00 | 0.00 | 51 | 1017.0 |
| 20260504192641 | 18 | 211 | 16.1 | 29.0 | 0.00 | 0.00 | 0.00 | 50 | 1017.0 |
| 20260504191741 | 18 | 191 | 16.1 | 32.2 | 0.00 | 0.00 | 0.00 | 51 | 1016.9 |
| 20260504190841 | 18 | 195 | 16.1 | 35.4 | 0.00 | 0.00 | 0.00 | 50 | 1017.1 |
| 20260504185040 | 18 | 210 | 11.3 | 29.0 | 0.00 | 0.00 | 0.00 | 49 | 1017.3 |
| 20260504184140 | 18 | 228 | 11.3 | 32.2 | 0.00 | 0.00 | 0.00 | 51 | 1017.3 |
| 20260504183241 | 18 | 201 | 11.3 | 22.5 | 0.00 | 0.00 | 0.00 | 49 | 1017.3 |
| 20260504182340 | 18 | 210 | 12.9 | 24.1 | 0.00 | 0.00 | 0.00 | 51 | 1017.5 |
| 20260504180541 | 18 | 213 | 12.9 | 25.7 | 0.00 | 0.00 | 0.00 | 51 | 1017.7 |
| 20260504175640 | 17 | 210 | 12.9 | 27.4 | 0.00 | 0.00 | 0.00 | 50 | 1017.9 |
| 20260504174740 | 18 | 206 | 11.3 | 24.1 | 0.00 | 0.00 | 0.00 | 51 | 1017.9 |
| 20260504173840 | 18 | 220 | 14.5 | 27.4 | 0.00 | 0.00 | 0.00 | 49 | 1017.9 |
| 20260504172940 | 17 | 216 | 14.5 | 33.8 | 0.00 | 0.00 | 0.00 | 47 | 1017.9 |
| 20260504172041 | 17 | 221 | 16.1 | 35.4 | 0.00 | 0.00 | 0.00 | 47 | 1018.0 |
| 20260504171141 | 17 | 211 | 17.7 | 35.4 | 0.00 | 0.00 | 0.00 | 44 | 1018.2 |
| 20260504170240 | 18 | 211 | 14.5 | 30.6 | 0.00 | 0.00 | 0.00 | 44 | 1018.2 |
| 20260504150540 | 17 | 243 | 14.5 | 32.2 | 0.00 | 0.00 | 0.00 | 42 | 1019.4 |
| 20260504141140 | 16 | 234 | 11.3 | 22.5 | 0.00 | 0.00 | 0.00 | 45 | 1019.6 |
| 20260504140239 | 16 | 225 | 8.0 | 19.3 | 0.00 | 0.00 | 0.00 | 48 | 1019.6 |
| 20260504110239 | 10 | 235 | 8.0 | 22.5 | 0.00 | 0.00 | 0.00 | 59 | 1020.6 |
| 20260504080239 | 8 | 226 | 1.6 | 6.4 | 0.00 | 0.00 | 0.00 | 63 | 1019.4 |
| 20260504050237 | 5 | 0 | 0.0 | 0.0 | 0.00 | 0.00 | 0.00 | 68 | 1018.7 |
| 20260504045337 | 5 | 0 | 0.0 | 0.0 | 0.00 | 0.00 | 0.00 | 67 | 1018.8 |
| 20260504044437 | 5 | 0 | 0.0 | 0.0 | 0.00 | 0.00 | 0.00 | 66 | 1018.8 |
| 20260504043537 | 5 | 0 | 0.0 | 0.0 | 0.00 | 0.00 | 0.00 | 64 | 1018.8 |
| 20260504042637 | 6 | 0 | 0.0 | 0.0 | 0.00 | 0.00 | 0.00 | 63 | 1018.7 |
| 20260504041737 | 6 | 0 | 0.0 | 0.0 | 0.00 | 0.00 | 0.00 | 62 | 1018.7 |
| 20260504040837 | 5 | 0 | 0.0 | 0.0 | 0.00 | 0.00 | 0.00 | 64 | 1018.7 |
| 20260504035937 | 5 | 0 | 0.0 | 0.0 | 0.00 | 0.00 | 0.00 | 64 | 1018.7 |
| 20260504035037 | 5 | 0 | 0.0 | 0.0 | 0.00 | 0.00 | 0.00 | 62 | 1018.7 |
| 20260504033237 | 6 | 0 | 0.0 | 0.0 | 0.00 | 0.00 | 0.00 | 61 | 1018.6 |
| 20260504032337 | 6 | 0 | 0.0 | 0.0 | 0.00 | 0.00 | 0.00 | 61 | 1018.6 |
| 20260504031437 | 6 | 0 | 0.0 | 0.0 | 0.00 | 0.00 | 0.00 | 63 | 1018.6 |
| 20260504030537 | 5 | 0 | 0.0 | 0.0 | 0.00 | 0.00 | 0.00 | 64 | 1018.5 |
| 20260504025637 | 5 | 0 | 0.0 | 0.0 | 0.00 | 0.00 | 0.00 | 67 | 1018.5 |
| 20260504023837 | 6 | 0 | 0.0 | 0.0 | 0.00 | 0.00 | 0.00 | 63 | 1018.4 |
| 20260504022936 | 6 | 0 | 0.0 | 0.0 | 0.00 | 0.00 | 0.00 | 64 | 1018.4 |
| 20260504022037 | 6 | 0 | 0.0 | 0.0 | 0.00 | 0.00 | 0.00 | 65 | 1018.4 |
| 20260504021136 | 6 | 0 | 0.0 | 0.0 | 0.00 | 0.00 | 0.00 | 61 | 1018.4 |
| 20260504020236 | 7 | 0 | 0.0 | 0.0 | 0.00 | 0.00 | 0.00 | 58 | 1018.4 |
| 20260504015336 | 7 | 0 | 0.0 | 0.0 | 0.00 | 0.00 | 0.00 | 58 | 1018.4 |
| 20260504014436 | 7 | 0 | 0.0 | 0.0 | 0.00 | 0.00 | 0.00 | 56 | 1018.4 |
| 20260504013536 | 8 | 0 | 0.0 | 0.0 | 0.00 | 0.00 | 0.00 | 56 | 1018.3 |
| 20260504012636 | 8 | 0 | 0.0 | 0.0 | 0.00 | 0.00 | 0.00 | 54 | 1018.1 |
| 20260504011736 | 8 | 0 | 0.0 | 0.0 | 0.00 | 0.00 | 0.00 | 52 | 1018.1 |
| 20260504010836 | 9 | 0 | 0.0 | 0.0 | 0.00 | 0.00 | 0.00 | 51 | 1018.0 |
| 20260504005936 | 10 | 0 | 0.0 | 0.0 | 0.00 | 0.00 | 0.00 | 47 | 1017.8 |
| 20260504005036 | 10 | 0 | 0.0 | 0.0 | 0.00 | 0.00 | 0.00 | 45 | 1017.7 |
| 20260504004136 | 11 | 0 | 0.0 | 0.0 | 0.00 | 0.00 | 0.00 | 43 | 1017.6 |
| 20260504003236 | 11 | 0 | 0.0 | 0.0 | 0.00 | 0.00 | 0.00 | 39 | 1017.5 |
| 20260504002336 | 11 | 251 | 0.0 | 3.2 | 0.00 | 0.00 | 0.00 | 39 | 1017.3 |
| 20260504001436 | 12 | 259 | 1.6 | 4.8 | 0.00 | 0.00 | 0.00 | 38 | 1017.1 |
| 20260504000536 | 12 | 252 | 1.6 | 4.8 | 0.00 | 0.00 | 0.00 | 38 | 1017.0 |
| 20260503234736 | 12 | 274 | 4.8 | 11.3 | 0.00 | 0.00 | 0.00 | 40 | 1016.8 |
| 20260503233836 | 13 | 279 | 8.0 | 16.1 | 0.00 | 0.00 | 0.00 | 38 | 1016.7 |
| 20260503232937 | 13 | 282 | 6.4 | 17.7 | 0.00 | 0.00 | 0.00 | 37 | 1016.6 |
| 20260503232036 | 13 | 283 | 6.4 | 12.9 | 0.00 | 0.00 | 0.00 | 37 | 1016.4 |
| 20260503231136 | 13 | 284 | 8.0 | 16.1 | 0.00 | 0.00 | 0.00 | 38 | 1016.4 |
| 20260503230236 | 13 | 290 | 11.3 | 22.5 | 0.00 | 0.00 | 0.00 | 38 | 1016.4 |
| 20260503224435 | 14 | 291 | 9.7 | 20.9 | 0.00 | 0.00 | 0.00 | 36 | 1016.3 |
| 20260503222636 | 13 | 289 | 9.7 | 19.3 | 0.00 | 0.00 | 0.00 | 35 | 1016.2 |
| 20260503221735 | 13 | 293 | 9.7 | 16.1 | 0.00 | 0.00 | 0.00 | 35 | 1016.2 |
| 20260503220835 | 13 | 302 | 11.3 | 22.5 | 0.00 | 0.00 | 0.00 | 37 | 1016.2 |
| 20260503215036 | 13 | 298 | 11.3 | 19.3 | 0.00 | 0.00 | 0.00 | 38 | 1016.2 |
| 20260503214136 | 13 | 295 | 11.3 | 22.5 | 0.00 | 0.00 | 0.00 | 38 | 1016.1 |
| 20260503213236 | 13 | 299 | 11.3 | 22.5 | 0.00 | 0.00 | 0.00 | 36 | 1016.0 |
| 20260503212335 | 13 | 291 | 12.9 | 29.0 | 0.00 | 0.00 | 0.00 | 36 | 1016.0 |
| 20260503211436 | 13 | 291 | 12.9 | 29.0 | 0.00 | 0.00 | 0.00 | 36 | 1016.0 |
| 20260503210535 | 13 | 294 | 12.9 | 25.7 | 0.00 | 0.00 | 0.00 | 39 | 1016.0 |
| 20260503203835 | 12 | 303 | 12.9 | 25.7 | 0.00 | 0.00 | 0.00 | 41 | 1016.0 |
| 20260503202035 | 12 | 297 | 17.7 | 32.2 | 0.00 | 0.00 | 0.00 | 39 | 1016.0 |
| 20260503201135 | 12 | 302 | 14.5 | 32.2 | 0.00 | 0.00 | 0.00 | 37 | 1016.1 |
| 20260503200235 | 12 | 289 | 16.1 | 29.0 | 0.00 | 0.00 | 0.00 | 42 | 1016.2 |
| 20260503195335 | 12 | 289 | 16.1 | 33.8 | 0.00 | 0.00 | 0.00 | 41 | 1016.2 |